Flag for Philippines Weather past 2 weeks in Mabalacat, Philippines

Now
88 °F

Broken clouds.


Feels Like: 94 °F
Forecast: 76 / 90 °F
Wind: 6 mph from East

Location: Clarkfield Pampanga International Airport

Current Time: Sep 3, 2015 at 11:25:26 AM

Latest Report: Sep 3, 2015 at 11:00 AM


Visibility: N/A

Pressure: 29.92 "Hg

Humidity: 59%

Dew point: 72 °F

Location of MabalacatLocation

Historic Weather in Mabalacat — Graph

°F

Mabalacat temperature yesterday

Maximum temperature yesterday: 88 °F (at 11:00 AM)
Minimum temperature yesterday: 77 °F (at 1:00 AM)
Average temperature yesterday: 82 °F

Past Weeks' High & Low Weather Summary

 TemperatureHumidityPressure
High90 °F (Aug 19, 12:00 PM)100% (Aug 19, 2:00 PM)29.95 "Hg (Aug 19, 2:00 PM)
Low72 °F (Aug 31, 5:00 AM)59% (Aug 26, 1:00 PM)29.53 "Hg (Aug 21, 4:00 PM)
Average79 °F90%29.81 "Hg
* Reported Aug 19 10:00 AM — Sep 3 10:00 AM, Mabalacat, Weather by CustomWeather, © 2015

Note: Actual official high and low records may vary slightly from our data, if they occured in-between our weather recording intervals... More about our weather records

Advertising

Mabalacat weather history for previous 24 hours

 ConditionsComfort  
Time TempWeatherWind HumidityBarometerVisibility
10:00 AM
Thu, Sep 3
86 °FBroken clouds.5 mph66%29.92 "HgN/A
9:00 AM84 °FPartly sunny.5 mph79%29.92 "HgN/A
8:00 AM84 °FPartly sunny.1 mph70%29.92 "HgN/A
7:00 AM79 °FBroken clouds.5 mph89%29.92 "HgN/A
6:00 AM77 °FBroken clouds.3 mph94%29.92 "HgN/A
5:00 AM77 °FPassing clouds.5 mph94%29.92 "HgN/A
4:00 AM75 °FPassing clouds.2 mph100%29.92 "HgN/A
3:00 AM75 °FPassing clouds.2 mph100%29.92 "HgN/A
2:00 AM77 °FPassing clouds.3 mph94%29.92 "HgN/A
1:00 AM77 °FPassing clouds.6 mph94%29.92 "HgN/A
12:00 AM77 °FPassing clouds.5 mph100%29.92 "HgN/A
11:00 PM
Wed, Sep 2
77 °FPassing clouds.1 mph100%29.95 "HgN/A
10:00 PM77 °FPartly cloudy.7 mph100%29.95 "HgN/A
9:00 PM79 °FMostly cloudy.14 mph94%29.95 "HgN/A
8:00 PM82 °FPartly cloudy.1 mph89%29.89 "HgN/A
7:00 PM84 °FPartly cloudy.5 mph84%29.86 "HgN/A
6:00 PM86 °FBroken clouds.3 mph70%29.86 "HgN/A
5:00 PM86 °FBroken clouds.5 mph70%29.83 "HgN/A
4:00 PM86 °FBroken clouds.3 mph70%29.83 "HgN/A
3:00 PM88 °FBroken clouds.7 mph66%29.83 "HgN/A
2:00 PM86 °FBroken clouds.5 mph70%29.83 "HgN/A
1:00 PM86 °FBroken clouds.6 mph75%29.86 "HgN/A
12:00 PM86 °FBroken clouds.5 mph70%29.89 "HgN/A
11:00 AM88 °FBroken clouds.6 mph66%29.89 "HgN/A
Weather by CustomWeather, © 2015

See weather overviewHow to use our weather pages